GFSSE_sfc_temp_132.txt.gz
Temp
73 78 81 82 82 82 82 80 82 83 83 83 83 83 83 84 83 83 83 83 83 84 84 84 84 84 84 84 84 84 84 83 83 83 83 83 82 82 83 83 82 82 82
77 80 81 81 82 81 82 82 82 82 82 82 82 83 83 84 84 83 83 83 84 84 84 84 84 84 84 84 84 84 84 83 83 84 84 84 84 83 83 83 83 82 82
78 80 80 81 82 82 82 82 82 82 83 83 82 83 84 83 84 83 84 84 84 84 84 84 84 84 84 84 84 84 84 83 82 83 83 80 81 83 83 83 83 82 82
79 79 79 81 81 82 81 82 82 83 83 83 83 83 83 83 84 84 84 84 84 84 84 84 84 84 84 84 83 83 83 83 83 83 80 81 83 83 83 83 82 82 81
78 77 79 82 82 82 82 82 82 83 83 83 83 83 84 84 84 84 84 84 84 84 84 84 84 83 83 83 82 83 82 83 84 83 77 75 76 82 83 82 82 82 81
77 76 81 82 83 82 82 82 83 83 83 83 83 84 84 84 84 84 84 84 84 84 84 84 84 84 83 83 82 82 83 83 84 80 77 78 77 82 82 82 82 82 81
77 79 81 82 82 83 82 83 83 82 83 84 84 84 84 84 84 84 84 84 84 83 84 84 84 84 83 83 83 82 83 84 80 78 77 76 77 82 82 82 82 81 81
78 79 81 82 82 83 83 83 83 83 84 84 84 84 84 84 83 83 84 84 84 84 83 84 84 83 83 82 82 83 83 85 83 79 78 75 79 81 82 82 81 81 81
80 79 80 81 82 83 83 83 83 83 84 84 84 83 83 84 84 83 83 83 84 83 83 83 83 83 83 82 82 83 83 84 76 77 80 75 80 82 82 82 81 81 81
79 78 77 79 81 80 81 83 83 83 83 84 84 84 84 84 84 84 82 83 83 83 83 83 83 83 82 82 82 83 83 84 77 79 78 75 80 82 82 82 81 81 81
77 76 76 76 75 77 79 82 83 84 84 84 84 84 83 78 79 81 81 83 83 83 83 83 83 83 82 82 83 83 82 78 77 78 77 79 80 82 82 82 81 81 81
74 75 76 76 75 75 81 79 77 80 79 78 79 80 78 76 76 80 82 83 84 84 84 83 83 83 82 76 76 80 78 78 77 79 77 80 80 82 82 81 81 81 81
75 77 76 76 75 76 79 77 75 76 75 75 77 76 76 75 75 76 75 79 78 82 78 80 79 77 76 76 76 75 79 78 78 78 80 80 80 82 82 81 81 81 81
76 77 77 77 77 76 77 76 77 77 76 75 76 75 75 73 73 74 74 75 75 75 75 75 75 74 74 76 76 76 77 78 77 75 77 81 80 81 82 81 81 81 81
77 78 78 78 77 77 76 76 76 75 77 77 77 77 75 74 73 73 74 74 74 74 74 73 73 74 73 75 77 77 78 80 79 76 74 82 80 80 81 82 81 81 81
79 79 79 77 77 77 75 74 76 76 77 76 75 76 76 75 73 74 73 74 74 75 74 74 74 74 74 75 77 77 79 80 80 79 77 79 81 80 81 82 82 82 81
81 81 79 77 78 77 75 74 74 75 76 75 76 76 77 76 76 76 76 75 76 74 74 74 74 75 74 77 76 77 78 78 80 80 78 78 79 81 81 80 81 81 81
82 80 79 82 78 77 77 76 77 76 76 78 76 75 77 77 76 75 77 76 76 75 74 73 73 73 75 74 74 75 76 77 77 79 78 78 78 80 80 81 81 80 81
81 80 78 79 77 77 76 77 76 76 77 78 78 77 76 77 76 76 76 76 74 74 73 73 73 73 72 73 73 73 74 75 76 80 78 78 77 79 78 80 80 80 81
78 80 79 79 78 78 78 75 75 74 75 75 75 77 77 77 76 75 73 73 73 74 74 73 71 74 73 74 78 78 74 74 75 74 75 79 77 78 78 78 77 80 81
76 77 79 78 76 78 77 74 72 73 73 74 75 78 77 77 77 75 75 73 72 73 74 73 71 71 72 73 71 72 72 74 73 75 75 76 77 78 78 77 76 77 78
78 77 78 79 77 79 80 75 74 73 73 75 75 76 77 77 77 77 76 75 73 74 72 72 71 70 70 71 69 68 66 69 72 75 76 78 77 79 78 79 78 78 78
77 78 79 78 77 79 76 74 73 73 73 73 74 74 76 78 78 77 77 77 72 73 75 73 73 71 71 70 71 70 63 62 64 70 73 75 77 74 75 76 79 79 78
81 81 79 76 72 74 75 77 76 75 76 79 77 80 76 77 78 78 78 77 76 74 73 72 73 72 70 72 70 73 70 68 65 64 70 72 72 71 71 71 75 78 79
81 82 75 76 74 75 77 77 76 76 77 76 73 75 74 73 77 78 78 78 77 76 77 75 73 72 74 74 71 69 70 70 68 67 67 68 70 71 72 73 73 75 80
81 81 79 75 74 74 74 76 75 74 74 74 74 73 72 73 75 78 79 78 78 78 77 76 75 74 74 73 71 70 70 68 69 67 67 68 66 69 70 71 71 71 74

GFSSE_sfc_temp_138.txt.gz
Temp
73 76 81 82 82 81 82 82 83 83 83 83 83 83 83 83 83 83 83 83 83 84 84 84 84 84 84 85 84 84 83 83 83 83 83 82 82 82 82 83 82 83 82
74 76 81 82 83 83 82 83 82 83 83 83 83 83 83 83 83 83 83 84 84 84 84 84 84 84 84 83 83 83 83 83 83 82 83 83 83 83 82 82 82 83 82
75 76 79 81 82 82 82 82 82 83 83 83 83 83 83 83 83 84 84 84 83 84 84 84 84 84 83 83 84 83 83 83 83 83 82 81 82 83 83 83 83 82 82
74 75 78 81 82 82 82 83 83 83 83 83 83 83 83 83 83 84 84 84 84 83 84 84 84 84 84 84 83 83 83 83 82 82 81 82 84 83 82 82 82 82 81
74 74 77 82 81 81 81 82 83 83 83 83 83 83 83 83 84 84 84 84 84 84 83 84 85 84 83 83 83 83 83 83 82 81 79 79 81 83 82 82 82 81 81
74 75 80 82 83 82 81 82 82 83 83 83 84 84 83 83 84 84 84 84 84 84 83 83 84 84 84 83 83 83 83 83 82 79 78 80 79 82 82 82 82 81 81
74 75 79 82 82 82 82 83 83 83 83 83 84 84 84 84 84 84 84 84 83 83 83 83 84 83 83 83 83 82 82 83 81 78 78 78 79 81 82 82 81 81 81
75 75 78 82 82 83 83 83 83 83 83 84 84 84 84 84 83 83 83 83 83 83 83 83 83 83 83 83 83 82 83 83 81 79 78 78 78 81 82 82 81 81 81
77 76 77 78 81 83 83 83 83 84 84 84 84 84 84 84 83 83 83 83 83 83 83 83 83 83 83 82 82 83 83 82 78 79 80 78 78 81 82 81 81 81 81
75 76 76 76 79 81 82 83 83 83 84 84 84 84 84 84 84 83 82 82 83 83 83 83 83 83 82 82 82 82 83 82 80 80 80 79 78 81 82 82 81 81 80
74 73 75 77 76 76 79 82 83 84 84 85 84 85 83 79 80 81 81 83 83 83 83 83 83 82 82 82 82 82 82 80 79 80 80 78 79 81 82 81 81 81 81
72 73 74 76 75 76 81 79 78 80 80 79 79 79 78 78 77 80 81 83 83 83 83 83 82 82 82 79 79 80 79 80 79 80 79 79 79 81 82 81 81 81 81
72 75 74 75 75 75 77 76 76 77 77 77 77 77 77 76 77 77 76 78 79 81 79 81 79 78 77 77 78 78 79 80 80 81 81 79 80 81 82 81 81 81 81
71 74 73 74 74 75 75 76 77 76 76 76 76 76 75 74 74 75 75 76 76 77 77 77 76 77 76 76 77 78 78 80 80 79 79 80 80 81 82 82 81 81 81
71 73 73 73 73 74 74 74 75 75 76 77 76 76 75 75 74 74 75 75 76 76 76 75 75 75 75 76 76 77 78 79 80 79 78 80 81 80 81 82 82 81 81
72 72 73 73 73 73 73 73 73 74 76 75 75 76 75 75 74 74 74 75 75 75 76 75 75 75 74 75 76 77 78 79 80 80 80 79 81 80 81 82 81 81 82
73 74 72 72 73 72 73 73 72 73 74 74 74 75 75 74 74 75 74 74 75 75 75 74 75 75 74 75 75 76 77 78 79 80 80 79 81 81 80 81 81 81 81
73 72 73 77 74 72 73 73 73 73 73 74 74 74 75 75 75 74 74 74 75 74 74 74 74 74 74 74 74 75 76 77 78 78 80 80 79 82 81 81 81 81 81
74 72 72 74 74 73 73 73 73 73 73 74 74 75 75 76 75 75 75 75 75 75 74 74 73 72 73 73 74 75 75 75 76 80 78 79 79 80 80 80 80 80 81
74 74 73 74 73 73 73 73 73 73 73 74 74 75 76 76 76 76 76 74 75 74 73 74 72 74 73 74 76 76 75 76 76 75 76 80 79 79 80 79 80 82 81
74 72 71 72 72 72 71 71 71 72 74 73 74 75 75 75 75 75 76 75 74 74 74 73 73 72 73 74 72 74 74 76 77 76 77 78 78 79 79 79 79 80 81
74 73 71 71 72 72 71 72 74 73 73 75 75 74 76 76 75 75 75 75 74 73 72 72 72 71 71 72 72 69 69 72 75 77 77 77 77 78 79 79 79 78 79
73 72 73 71 71 73 73 72 72 72 73 71 72 73 75 76 76 75 75 75 74 74 72 72 73 72 72 70 71 71 67 65 67 74 76 76 76 76 77 78 79 79 79
74 74 72 72 72 72 74 72 73 72 72 73 73 72 71 75 75 76 75 75 75 75 73 74 74 73 71 72 69 71 72 71 68 67 72 75 76 75 76 75 76 77 78
74 74 74 73 72 73 74 74 71 71 71 72 72 73 73 72 75 76 76 75 74 73 74 74 73 72 74 75 69 69 70 70 70 68 70 69 72 76 75 77 79 78 78
75 75 75 72 72 72 72 73 72 72 73 71 71 71 72 72 72 74 76 75 75 73 73 74 73 72 72 73 72 70 71 71 69 68 67 70 70 76 76 77 76 77 78

GFSSE_sfc_temp_144.txt.gz
Temp
78 80 80 81 82 83 83 83 83 83 83 83 83 83 83 83 83 84 84 84 84 84 84 84 84 84 84 84 84 84 84 83 83 83 83 83 83 83 83 84 85 91 83
87 85 80 80 81 83 83 83 83 83 83 83 83 83 83 84 84 84 84 84 84 84 85 85 84 84 84 84 84 84 84 84 84 84 84 83 83 83 83 84 85 87 82
88 87 83 82 83 83 83 82 83 83 83 83 83 84 84 84 84 84 84 84 84 84 84 84 84 84 84 84 84 84 83 83 83 84 85 96 91 83 83 83 82 82 82
87 80 85 81 82 82 82 83 83 84 84 83 83 83 84 84 84 84 84 84 84 84 84 84 84 84 84 83 83 83 83 83 83 84 96 97 94 83 83 83 82 82 82
88 83 84 82 83 82 82 83 83 83 84 83 84 84 84 84 84 84 84 84 84 84 85 85 84 84 84 84 83 83 83 82 82 90 95 96 95 86 83 82 82 82 82
89 81 81 82 82 82 83 83 83 83 84 83 84 84 84 84 84 84 84 84 84 85 85 85 84 84 84 83 83 83 83 83 83 94 93 91 93 82 83 83 82 82 82
83 78 81 81 81 82 83 83 83 83 83 84 84 84 84 84 83 84 84 84 84 84 84 84 84 84 84 84 83 84 83 83 94 95 93 93 90 82 82 82 82 82 81
85 79 76 80 80 80 82 83 83 84 83 84 84 84 84 84 84 84 83 84 84 84 84 84 84 84 84 83 83 83 83 84 93 95 94 95 82 82 82 82 82 82 82
86 84 82 81 80 81 81 82 83 84 84 84 84 84 84 84 84 83 83 83 83 83 84 84 84 84 83 83 83 83 83 83 96 96 98 98 80 82 83 82 81 81 82
80 81 81 85 86 77 79 81 82 84 84 84 84 84 84 84 84 83 83 83 83 84 83 84 83 83 83 83 83 84 84 84 102 98 98 93 81 81 82 82 82 81 81
87 82 83 87 86 80 81 81 83 84 84 85 85 85 85 91 90 90 84 83 84 84 84 83 83 83 82 83 83 83 83 101 100 102 104 80 80 81 82 82 82 82 81
88 86 86 89 83 89 84 81 81 85 89 87 90 88 95 90 90 91 87 83 84 84 84 83 83 82 83 98 96 86 98 100 100 101 100 81 80 81 82 82 82 81 81
90 92 90 91 88 90 89 82 86 81 84 89 88 89 90 90 89 92 93 94 93 87 95 91 86 95 94 95 97 97 98 97 100 102 91 81 81 81 82 82 82 81 81
91 92 93 92 90 91 93 90 84 82 89 93 88 86 87 88 89 88 90 90 90 93 90 90 95 93 92 93 93 93 95 97 96 99 96 82 81 81 82 82 82 82 81
89 91 92 90 89 87 86 91 91 90 87 91 87 86 86 88 88 90 90 87 87 90 92 90 91 91 90 91 92 92 94 96 96 97 98 84 81 80 81 82 82 82 82
90 90 92 90 90 90 88 88 89 89 91 91 91 88 85 87 87 87 87 89 87 84 86 87 89 89 87 89 92 91 92 94 95 95 96 98 82 81 81 82 82 82 82
91 91 90 89 90 88 87 88 88 92 93 93 93 90 87 84 84 83 84 84 89 90 84 87 86 88 87 88 90 91 90 89 95 93 94 96 96 80 81 81 81 82 82
92 89 90 92 91 89 88 89 91 92 93 93 94 93 90 88 87 86 87 86 86 84 86 85 83 83 86 87 84 91 93 91 92 92 93 95 97 99 86 81 80 81 81
91 89 88 89 90 89 88 90 89 89 90 93 94 94 91 90 90 88 90 89 86 87 86 87 85 84 84 84 87 90 92 93 93 96 92 92 94 95 98 88 80 80 81
92 90 88 89 88 87 89 87 91 91 92 93 93 94 92 92 90 89 92 90 87 87 85 84 82 84 83 84 87 89 90 93 94 94 94 95 95 95 96 94 95 93 80
92 89 87 86 86 87 88 88 89 90 92 93 94 92 91 91 90 89 91 91 91 90 87 86 85 84 86 84 80 80 83 89 92 94 96 96 94 96 95 95 93 95 96
91 89 87 86 86 86 89 88 91 91 93 94 94 92 92 91 90 90 88 90 91 91 88 86 84 83 89 85 83 83 81 87 93 95 95 94 94 93 95 95 93 91 93
92 90 88 86 86 86 87 89 88 88 89 90 90 92 93 91 88 87 87 86 87 86 89 87 84 84 84 83 84 81 82 82 90 93 92 93 91 92 93 94 93 92 91
94 94 91 88 86 87 87 87 85 88 87 92 90 90 86 90 90 89 89 89 87 90 86 87 86 83 81 83 82 82 83 85 81 82 92 93 92 88 88 91 92 92 92
96 95 93 89 88 87 87 86 88 86 91 93 90 87 88 87 88 89 88 87 84 85 86 85 85 84 86 82 79 80 79 77 79 75 78 86 94 95 96 94 95 95 95
97 96 94 89 86 87 87 87 85 85 87 89 90 89 92 94 94 91 90 87 86 86 86 85 84 83 83 83 86 85 82 80 78 76 79 80 84 91 95 97 96 96 96

GFSSE_sfc_temp_147.txt.gz
Temp
76 76 79 80 83 83 83 83 83 83 83 83 83 83 83 83 83 84 84 84 84 84 84 84 84 84 84 85 84 84 84 84 84 83 83 83 83 83 84 85 84 90 83
83 84 79 81 82 83 83 83 83 83 83 83 83 83 84 84 84 84 84 84 84 84 85 84 84 84 84 84 84 84 84 84 84 84 84 84 83 84 83 84 85 86 83
85 86 84 80 83 83 83 83 83 83 84 83 83 84 84 84 84 84 84 84 84 84 84 84 84 84 84 84 83 84 83 84 84 84 85 94 90 84 83 83 83 83 83
86 85 79 80 82 82 83 83 83 84 84 83 84 83 84 84 84 84 84 83 84 84 84 85 84 84 84 83 82 83 84 83 84 84 88 96 93 83 83 83 83 82 82
83 82 82 82 82 82 83 83 83 83 83 83 83 84 84 84 84 84 84 84 85 85 85 84 84 84 84 84 83 83 83 83 84 89 95 94 92 85 83 83 83 82 83
86 82 83 82 82 82 83 83 83 83 83 84 84 84 84 84 84 84 84 84 85 85 85 85 85 84 84 83 84 84 83 84 84 96 95 91 90 83 83 83 83 83 82
84 76 78 79 81 83 83 83 83 83 83 83 84 84 84 84 84 84 84 84 84 85 84 84 84 84 84 84 84 83 84 84 91 97 95 92 88 83 83 83 82 82 82
79 76 78 77 80 82 83 83 83 83 84 84 84 84 84 84 84 83 84 84 84 84 84 84 84 84 84 84 84 84 84 84 96 97 96 92 82 83 83 83 82 82 82
75 74 76 75 78 83 83 82 82 83 84 84 84 84 84 84 83 84 83 83 84 84 84 84 84 84 84 84 84 84 84 85 97 97 99 92 81 83 83 82 82 82 82
76 81 79 79 76 75 78 81 82 83 84 84 84 84 84 84 84 84 83 83 84 84 84 84 84 83 84 84 84 84 84 85 89 99 98 90 82 83 83 83 82 82 81
79 82 78 83 76 76 77 78 80 83 84 85 85 85 84 90 87 88 84 84 84 84 84 84 83 84 83 84 84 85 84 93 96 101 94 81 82 83 83 83 82 82 82
83 82 84 86 78 79 82 79 80 84 90 88 88 90 91 91 88 88 86 84 84 84 84 84 84 84 84 97 92 86 95 93 91 101 92 81 82 82 83 82 82 82 82
88 90 88 87 88 86 82 79 80 81 85 89 89 91 89 91 89 92 88 85 84 85 81 86 89 91 96 96 97 95 94 99 97 82 87 82 82 82 82 82 82 82 82
91 90 87 91 90 84 89 86 81 83 85 86 89 88 86 90 88 89 86 91 89 90 90 91 92 91 93 94 94 94 96 98 91 80 86 82 81 82 82 82 82 82 82
88 91 88 88 87 90 89 85 81 81 84 89 88 90 90 87 87 90 91 92 91 91 91 90 91 92 89 93 94 94 95 96 97 96 90 84 82 81 82 82 83 82 82
94 94 94 92 91 90 90 90 86 90 84 87 92 92 86 86 86 88 88 90 91 87 87 87 88 88 89 91 92 92 91 94 94 96 96 86 83 81 81 82 82 83 83
95 96 93 92 92 90 89 91 91 94 95 96 96 93 89 87 84 84 87 88 87 89 85 85 86 89 90 90 90 91 92 92 92 91 95 96 93 82 81 81 82 82 82
95 93 93 96 94 92 91 92 92 95 96 96 97 97 93 90 89 88 90 90 90 86 85 86 85 84 86 88 86 86 87 91 93 92 93 95 94 95 84 81 81 81 81
94 92 91 93 93 91 90 92 92 92 93 95 97 97 95 93 92 90 92 93 89 89 89 86 85 84 84 85 85 89 90 91 93 97 93 94 93 91 95 89 81 80 81
95 93 91 92 91 90 92 90 93 94 94 96 96 97 95 94 92 91 93 91 89 84 87 86 85 87 85 84 85 85 85 89 93 94 94 96 95 94 93 93 93 89 81
95 92 90 89 89 90 90 90 90 91 92 93 93 95 94 93 92 90 92 93 93 88 87 85 84 80 79 80 83 85 87 87 90 91 95 97 97 97 95 93 95 95 94
94 92 90 89 88 88 91 90 92 93 95 94 89 92 95 94 93 92 87 88 89 90 88 87 84 82 85 83 79 77 79 85 88 90 92 95 95 96 94 92 90 92 93
94 92 91 89 89 88 89 92 91 90 90 91 92 92 91 89 90 89 90 89 86 85 89 84 83 83 82 82 83 77 79 81 83 85 86 92 90 93 93 93 92 89 91
96 96 93 90 88 89 89 89 89 90 80 88 89 93 92 92 91 90 89 87 85 83 80 82 83 83 81 82 80 83 81 77 70 69 90 94 94 90 90 92 92 90 90
98 97 95 91 89 89 88 87 91 87 93 96 96 90 90 91 92 93 92 91 87 83 87 85 83 82 81 79 78 78 78 78 77 72 72 80 92 95 96 93 93 92 91
100 99 97 91 88 89 89 88 86 86 89 92 92 92 95 98 98 94 94 91 90 88 87 87 86 85 83 80 81 78 77 75 76 74 75 77 82 87 93 97 96 96 96